Probability
3 3 3 2 2 3 3 3 3 2 1 0 0 0 0 1 2 3 3 4 4 4 4 4 4 3 2 1 1 1 2 3 3 3 2 1 1 1 0 0 0 0 0
3 3 3 2 2 3 3 3 3 1 0 0 0 0 0 0 1 3 3 4 4 5 5 5 5 3 1 1 2 2 3 3 3 3 3 2 2 2 1 1 1 1 1
3 3 3 2 2 3 2 2 2 1 0 0 0 0 0 0 1 2 3 3 4 4 5 6 5 3 1 1 3 3 3 3 3 3 3 3 3 3 3 2 2 2 2
3 3 2 2 2 1 1 1 1 0 0 0 0 0 0 0 1 3 3 3 3 3 4 5 6 5 4 3 4 3 3 4 4 4 4 3 3 3 3 3 3 3 3
3 2 1 1 1 0 0 0 0 0 0 0 0 0 0 0 2 3 3 3 2 3 3 4 5 6 5 5 5 4 4 4 5 5 5 4 3 3 3 3 3 3 3
3 2 0 0 0 0 0 0 0 0 0 0 0 0 0 0 1 2 2 1 1 1 2 3 3 4 5 5 5 4 4 4 4 5 5 5 4 3 3 3 4 4 4
3 2 1 0 0 0 0 0 0 0 1 1 1 0 0 0 0 1 1 0 0 0 1 1 2 2 3 4 4 5 5 5 5 5 5 4 4 3 3 4 4 5 5
3 3 3 1 1 1 0 0 0 0 1 2 2 1 0 0 0 0 0 0 0 0 0 0 0 0 1 1 2 3 4 5 5 5 6 5 4 3 3 3 4 4 4
4 4 5 3 2 1 1 1 0 1 1 2 2 1 0 0 0 0 0 0 0 0 0 0 0 0 0 0 0 1 1 3 3 4 6 6 5 4 4 3 3 2 2
5 5 5 4 3 2 3 3 2 2 2 2 2 1 1 0 0 0 0 0 0 0 0 0 0 0 0 0 0 0 0 1 1 2 3 3 3 3 3 2 1 1 1
6 5 5 5 5 5 6 6 5 5 5 4 3 2 2 1 0 0 0 0 0 0 0 0 0 0 0 0 0 0 0 0 0 0 1 1 1 1 1 1 0 0 0
6 6 6 7 8 8 8 7 7 7 6 4 3 3 3 2 1 0 0 0 0 0 0 0 0 0 0 0 0 0 0 0 0 0 0 0 0 0 0 0 1 1 1
6 7 7 8 9 9 8 8 8 7 5 4 3 3 2 2 2 1 0 0 0 0 0 0 0 0 0 1 1 1 0 0 0 0 0 0 0 0 0 1 2 2 2
7 8 8 8 9 9 8 8 8 7 5 2 2 1 1 1 2 2 1 1 1 0 0 0 0 0 0 1 1 1 0 0 0 0 0 0 0 0 0 1 2 2 2
8 9 9 9 9 8 7 7 7 6 4 2 1 1 1 1 2 3 3 3 3 1 1 1 1 0 0 1 1 0 0 0 0 0 0 0 0 0 0 1 1 0 1
10 10 10 10 9 6 5 5 6 6 5 3 2 2 2 2 2 2 3 4 4 3 2 2 1 0 0 0 0 0 0 0 0 0 0 0 0 0 0 0 0 0 0
13 13 12 10 7 6 5 6 6 6 5 4 4 3 3 3 2 2 3 3 3 3 2 1 0 0 0 0 0 0 0 0 0 0 0 0 0 0 0 0 0 0 0
13 13 11 9 8 7 8 8 8 7 5 4 5 5 4 3 2 3 3 3 3 1 1 0 0 0 0 0 0 0 0 0 0 0 0 0 0 0 0 0 0 0 0
12 13 11 10 9 9 9 10 9 7 5 4 5 5 4 3 3 3 3 3 2 1 0 0 0 0 0 0 0 0 0 0 0 0 0 0 0 0 0 0 0 0 0
13 13 12 10 10 9 9 9 8 7 5 4 4 3 3 2 2 2 2 1 1 0 0 0 0 0 0 0 0 0 0 0 0 0 0 0 0 0 0 0 0 0 0
13 12 10 9 8 7 6 5 5 5 4 3 3 2 1 1 1 1 1 0 0 0 0 0 0 0 0 0 0 0 0 0 0 0 0 0 0 0 0 0 0 0 0
12 11 9 6 5 4 3 2 2 1 1 1 2 1 0 0 0 0 0 0 0 0 0 0 0 0 0 0 0 0 0 0 0 0 0 0 0 0 0 0 0 0 0
11 10 7 5 4 3 3 1 0 0 0 0 0 0 0 0 0 0 0 0 0 0 0 0 0 0 0 0 0 0 0 0 0 0 0 0 0 0 0 0 0 0 0
10 8 6 5 4 3 3 2 0 0 0 0 0 0 0 0 0 0 0 0 0 0 0 0 0 0 0 0 0 0 0 0 0 0 0 0 0 0 0 0 0 0 0
9 8 6 6 4 3 3 1 0 0 0 0 0 0 0 0 0 0 0 0 0 0 0 0 0 0 0 0 0 0 0 0 0 0 0 0 0 0 0 0 0 0 0
10 8 6 6 4 3 2 1 0 0 0 0 0 0 0 0 0 0 0 0 0 0 0 0 0 0 0 0 0 0 0 0 0 0 0 0 0 0 0 0 0 0 0
Wind_Speed
2 2 1 1 2 1 2 2 2 2 2 1 2 4 4 4 4 4 4 11 12 11 12 11 11 11 10 10 10 9 9 9 9 8 8 8 8 8 8 8 8 7 7
3 2 2 1 2 2 2 2 3 2 1 1 2 4 4 4 4 4 3 6 11 11 11 11 12 11 11 11 11 10 10 10 9 9 9 9 9 9 9 9 9 8 8
3 2 2 1 1 1 2 1 1 1 1 1 1 2 3 3 4 5 4 3 4 9 11 10 11 11 11 11 11 11 11 10 10 10 10 10 10 10 9 9 9 9 8
3 2 2 1 1 1 1 1 1 1 0 0 1 1 1 2 3 4 4 4 3 4 7 11 11 11 11 11 11 11 11 10 10 9 10 10 11 11 10 10 10 9 9
3 2 2 1 1 1 1 1 1 1 1 1 1 1 1 2 2 4 4 5 5 4 3 7 10 11 12 12 11 11 11 11 10 10 10 10 11 10 10 10 10 10 10
2 2 1 1 1 1 0 1 1 1 1 1 1 0 1 1 1 2 4 4 4 5 4 5 4 6 10 10 10 11 11 11 11 11 10 10 10 10 10 10 11 11 11
2 2 1 1 1 1 1 1 1 1 1 1 1 1 2 1 1 2 2 2 4 4 4 4 3 3 3 7 8 8 9 10 10 10 10 10 10 9 9 9 9 9 10
2 2 2 1 1 1 1 1 1 1 1 1 2 1 1 3 2 1 1 2 2 2 3 4 4 4 3 2 4 8 9 9 9 8 8 8 8 8 8 9 9 9 10
2 1 2 2 2 2 2 2 2 3 2 1 2 3 2 2 1 2 1 0 1 1 1 2 3 3 3 2 2 4 7 7 8 8 7 6 6 5 6 8 8 9 9
1 2 2 2 2 1 2 2 2 2 3 2 1 1 2 4 3 1 2 1 1 1 1 1 2 2 2 1 1 1 3 4 5 5 5 5 5 4 5 5 6 6 6
1 1 1 1 1 1 2 2 1 1 2 2 2 1 1 1 2 2 1 1 1 0 1 1 1 1 2 2 1 2 2 1 1 2 3 3 3 3 4 4 4 4 4
1 1 0 0 1 1 1 2 1 2 2 2 2 2 2 2 2 3 3 2 1 1 1 1 1 2 2 2 2 3 3 3 2 2 2 1 1 1 1 1 2 3 3
1 1 0 0 0 1 1 0 1 1 1 1 2 2 2 2 2 3 3 2 1 0 1 1 0 1 2 2 1 3 4 4 4 4 4 4 4 4 4 4 3 3 3
1 0 1 1 1 1 1 1 0 0 0 0 1 1 1 1 2 3 3 3 1 0 0 1 1 1 1 2 3 4 4 6 6 6 6 6 7 7 6 6 6 6 6
0 1 1 2 2 2 2 2 2 1 1 1 1 1 0 0 0 1 2 3 4 2 1 0 0 1 2 2 4 4 4 7 8 9 9 9 9 9 9 9 8 8 8
1 2 2 2 2 3 3 3 2 2 2 2 1 2 1 1 1 0 1 1 2 3 2 0 0 1 2 4 6 4 5 9 9 9 9 9 9 9 9 9 9 9 9
2 2 2 3 3 3 3 3 2 2 3 2 2 2 2 2 1 1 1 1 1 2 3 1 1 2 3 4 4 4 4 4 4 8 8 9 9 9 8 8 8 9 9
2 3 3 3 3 3 2 3 2 2 3 3 3 3 3 2 2 2 1 2 1 2 3 3 2 2 3 3 4 4 3 4 3 7 7 8 8 8 8 7 7 7 8
3 3 3 3 3 2 2 2 2 2 3 3 3 3 2 3 3 2 2 2 2 2 3 4 3 2 2 3 3 3 3 2 3 4 6 6 6 6 6 6 7 7 7
3 3 3 3 2 2 2 3 3 3 3 4 4 3 3 3 3 2 3 3 3 4 4 4 3 2 2 2 3 3 2 1 1 2 3 3 4 4 5 5 5 5 5
3 3 3 3 3 3 3 3 3 4 4 4 4 4 4 6 6 4 3 3 3 3 3 3 3 2 1 2 1 1 2 1 1 1 1 1 1 1 1 2 2 3 3
3 4 4 4 4 3 5 6 5 4 4 4 3 3 4 6 7 8 7 6 5 5 4 3 2 2 2 1 1 2 2 2 0 1 1 0 1 0 1 1 0 1 1
4 5 4 4 4 4 6 6 7 4 4 3 3 3 3 4 5 4 6 8 6 6 5 4 4 3 2 2 2 2 2 2 1 2 1 0 0 1 1 1 1 1 2
4 4 4 4 4 4 6 6 7 5 4 3 3 3 3 3 3 4 5 5 4 4 3 2 3 2 2 2 3 3 3 2 1 1 1 1 1 1 1 1 3 3 3
4 3 3 4 4 3 5 6 6 4 4 4 4 4 4 3 5 6 5 4 4 3 4 5 4 3 4 4 4 3 3 3 1 1 1 1 0 1 1 2 3 4 4
4 4 4 3 3 3 4 6 6 3 4 3 3 3 4 4 4 5 4 4 3 2 2 3 4 4 3 3 4 3 3 3 1 1 1 1 0 1 1 2 1 1 2
Wind_Direction
157 175 194 199 210 202 190 206 229 245 238 191 176 169 169 164 164 172 177 180 182 184 184 184 186 188 188 190 191 193 195 197 195 192 194 195 196 196 195 195 194 195 194
158 166 178 194 208 207 201 199 209 211 208 169 171 171 174 169 173 175 177 185 188 189 192 194 196 197 197 199 201 204 204 205 202 202 203 204 204 206 206 206 205 205 204
156 157 167 190 224 209 194 188 197 191 179 167 162 175 178 175 170 176 180 182 191 198 198 200 202 204 205 207 209 210 210 209 207 208 211 212 211 213 215 214 213 212 211
152 151 163 200 217 183 167 172 165 123 72 126 160 201 192 187 181 184 184 188 193 202 207 208 208 210 211 211 212 213 212 212 213 214 217 220 220 218 219 219 219 217 216
155 150 172 209 201 151 169 193 141 152 169 201 212 215 212 198 194 192 194 197 198 199 204 216 216 214 216 218 219 219 218 216 217 220 223 225 225 223 221 223 224 223 223
168 155 173 211 188 134 175 162 154 167 175 191 221 266 246 227 210 201 207 202 200 200 202 214 216 223 224 224 226 226 225 223 222 223 226 229 229 228 227 228 228 227 227
177 165 167 189 181 175 205 187 149 154 199 142 97 2 333 289 220 222 216 200 201 199 195 203 204 204 224 225 230 231 232 230 228 229 231 232 234 232 231 232 232 232 233
192 182 181 197 201 193 217 198 154 158 227 161 140 120 350 343 340 258 211 190 195 190 196 201 194 192 205 213 225 228 233 235 235 232 231 231 235 235 236 234 234 236 239
206 196 201 196 204 191 211 221 191 177 209 240 171 154 162 221 299 344 355 149 160 166 202 200 191 196 201 208 229 236 232 227 226 226 224 224 226 232 240 240 239 241 243
216 211 212 200 202 199 209 229 200 182 175 212 234 194 180 167 161 287 336 352 111 165 199 195 201 197 190 189 185 213 231 227 234 239 234 225 222 223 235 238 240 242 244
272 245 225 209 205 203 212 224 209 192 181 184 193 195 168 169 159 162 230 305 12 331 189 183 198 182 161 161 158 130 128 131 227 254 245 235 226 219 228 235 243 243 244
320 302 177 211 232 214 218 221 205 201 208 196 193 182 172 176 187 170 190 211 244 311 21 78 149 157 159 153 157 139 134 122 107 77 62 35 2 312 295 288 284 271 263
326 307 28 344 308 262 248 224 168 213 208 192 203 203 184 196 178 163 160 184 196 271 21 24 349 139 142 132 136 124 107 107 107 97 80 67 55 51 52 45 34 29 24
221 328 69 50 33 17 33 50 62 118 109 174 215 186 174 218 180 168 166 160 158 299 11 320 14 45 96 110 105 99 90 95 95 91 84 78 73 71 70 66 61 57 54
122 80 72 66 55 56 60 70 58 47 69 50 28 52 71 305 224 175 165 164 161 173 235 266 34 41 89 94 102 94 88 90 91 87 84 83 81 77 73 71 68 64 62
75 83 72 72 65 61 64 73 68 52 67 40 37 46 32 349 0 57 154 161 156 162 173 173 123 116 106 100 92 81 87 90 89 91 90 88 84 79 75 71 67 64 62
99 92 93 91 79 68 72 81 76 73 68 38 23 36 14 12 28 23 58 92 114 132 143 119 75 93 91 100 98 86 82 81 85 91 93 90 86 83 77 72 69 66 64
103 108 103 91 86 77 73 86 82 71 69 51 29 32 12 28 39 34 59 78 96 118 136 132 98 84 88 116 114 106 97 94 91 92 94 92 90 87 83 77 72 67 65
104 103 103 98 91 82 78 78 93 84 75 64 52 48 26 45 45 43 62 74 81 90 108 125 117 100 96 117 107 101 96 77 95 100 98 94 93 89 84 81 77 72 68
107 107 107 108 101 88 80 80 86 82 74 65 59 58 56 63 64 64 74 76 92 93 97 110 113 109 104 114 113 116 97 61 80 84 83 90 89 86 84 85 86 82 75
108 105 99 85 82 87 82 89 92 91 81 70 55 51 62 73 72 76 91 100 105 105 107 111 117 108 103 116 137 149 128 106 32 74 70 33 52 37 36 67 93 104 97
95 95 92 88 79 77 82 90 97 89 83 78 68 55 64 61 64 67 79 89 107 123 129 128 129 134 155 151 145 145 136 124 205 276 119 339 88 357 300 291 177 135 141
102 96 95 93 87 77 85 91 94 98 93 88 81 72 70 64 65 68 67 64 66 86 115 138 139 158 164 181 153 138 146 153 190 204 126 289 311 273 270 266 255 258 251
117 112 107 105 97 78 81 91 99 93 90 82 78 85 83 62 64 83 79 63 51 47 66 99 136 161 159 163 163 157 148 120 57 44 109 140 267 262 274 285 269 255 259
120 117 121 115 103 81 84 95 100 95 87 73 69 74 86 80 71 86 87 76 53 28 47 70 82 88 96 112 124 110 104 107 81 313 8 123 241 293 306 293 273 257 257
127 121 108 109 110 102 95 102 107 107 100 86 64 60 72 84 77 87 98 98 83 35 51 54 50 44 49 63 88 124 145 139 139 239 256 133 129 73 331 297 297 280 270